This is the latest recevied weather packets stored in our database for station/object OE3MNS-12. If no packets are shown the sender has not sent any weather packets the latest 10 day(s).
| Time | Temp. | Humidity | Pressure | Rain* | Wind** | Luminosity | Snow |
|---|---|---|---|---|---|---|---|
| 1778323821 | 19.44° C | 44% | 1019.7 hPa | 1.02 mm | - | 720 W/m² | - |
| 1778323517 | 20° C | 43% | 1019.7 hPa | 1.02 mm | - | 726 W/m² | - |
| 1778322919 | 19.44° C | 45% | 1019.7 hPa | 1.02 mm | - | 713 W/m² | - |
| 1778322321 | 19.44° C | 46% | 1019.8 hPa | 1.02 mm | - | 693 W/m² | - |
| 1778322017 | 18.89° C | 48% | 1019.7 hPa | 1.02 mm | - | 706 W/m² | - |
| 1778321418 | 18.89° C | 49% | 1019.8 hPa | 1.02 mm | - | 657 W/m² | - |
| 1778320820 | 18.89° C | 49% | 1019.9 hPa | 1.02 mm | - | 681 W/m² | - |
| 1778320217 | 18.33° C | 50% | 1019.9 hPa | 1.02 mm | - | 672 W/m² | - |
| 1778319620 | 18.33° C | 51% | 1019.9 hPa | 1.02 mm | - | 658 W/m² | - |
| 1778319021 | 18.33° C | 50% | 1020 hPa | 1.02 mm | - | 637 W/m² | - |
| 1778318418 | 17.78° C | 53% | 1020.1 hPa | 1.02 mm | - | 624 W/m² | - |
| 1778317819 | 17.22° C | 54% | 1020.1 hPa | 1.02 mm | - | 615 W/m² | - |
| 1778317221 | 17.78° C | 54% | 1020.2 hPa | 1.02 mm | - | 587 W/m² | - |
| 1778316917 | 17.22° C | 56% | 1020.2 hPa | 1.02 mm | - | 582 W/m² | - |
| 1778316319 | 16.67° C | 56% | 1020.3 hPa | 1.02 mm | - | 567 W/m² | - |
| 1778315721 | 16.67° C | 57% | 1020.4 hPa | 1.02 mm | - | 548 W/m² | - |
| 1778315117 | 16.11° C | 58% | 1020.4 hPa | 1.02 mm | - | 519 W/m² | - |
| 1778314519 | 16.11° C | 58% | 1020.4 hPa | 1.02 mm | - | 484 W/m² | - |
| 1778313921 | 16.11° C | 61% | 1020.4 hPa | 1.02 mm | - | 463 W/m² | - |
| 1778313621 | 16.11° C | 60% | 1020.4 hPa | 1.02 mm | - | 458 W/m² | - |
| 1778313018 | 16.11° C | 59% | 1020.6 hPa | 1.02 mm | - | 436 W/m² | - |
| 1778312420 | 15.56° C | 61% | 1020.7 hPa | 1.02 mm | - | 411 W/m² | - |
| 1778312119 | 15° C | 62% | 1020.6 hPa | 1.02 mm | - | 397 W/m² | - |
| 1778311521 | 15° C | 64% | 1020.7 hPa | 1.02 mm | - | 373 W/m² | - |
| 1778311217 | 14.44° C | 66% | 1020.7 hPa | 1.02 mm | - | 361 W/m² | - |
* Rain latest hour (hover to see other rain measurements)
** Current wind speed in m/s (hover to see current wind gust speed)